Regional Weather Roundup
Issued by NWS Charleston, SC

Current Version | Previous Version | Text Only | Print | Product List | Glossary Off
Versions: 1 2 3 4 5 6 7 8 9 10 11 12 13 14 15 16 17 18 19 20 21 22 23 24 25 26 27 28 29 30 31 32 33 34 35 36 37 38 39 40 41 42 43 44 45 46 47 48 49 50

000
ASUS42 KCHS 271027
RWRCHS

REGIONAL WEATHER ROUNDUP
NATIONAL WEATHER SERVICE CHARLESTON SC
600 AM EDT MON APR 27 2015

NOTE: "FAIR" INDICATES FEW OR NO CLOUDS BELOW 12,000 FEET WITH NO
SIGNIFICANT WEATHER AND/OR OBSTRUCTIONS TO VISIBILITY.

NOT ALL STATIONS ARE QUALITY CONTROLLED BY THE NATIONAL
WEATHER SERVICE. USE DATA WITH CAUTION...ESPECIALLY
DEWPOINT OBSERVATIONS.

SCZ027-030-031-034>040-042>050-271100-
...SOUTHEAST SOUTH CAROLINA...

CITY           SKY/WX    TMP DP  RH WIND       PRES   REMARKS
N CHARLESTON   PTCLDY    52  49  89 N9        29.76R
WATERFRONT PRK   N/A     55 N/A N/A N15G21      N/A
MOUNT PLEASANT CLOUDY    54  52  94 MISG      29.76S
PINOPOLIS      NOT AVBL
MONCKS CORNER  FAIR      54  48  82 N7        29.77R
SUMMERVILLE    FAIR      52  52 100 N5        29.78R
BEAUFORT MCAS  CLOUDY    57  52  83 N10       29.76R
BEAUFORT ARPT  CLOUDY    57  54  88 CALM      29.76R
HILTON HEAD IS NOT AVBL
WALTERBORO     CLOUDY    54  50  87 N6        29.79R
ALLENDALE      FAIR      52  52 100 CALM      29.79R

...SOUTHERN MIDLANDS AND PEE DEE...

CITY           SKY/WX    TMP DP  RH WIND       PRES   REMARKS
GEORGETOWN     NOT AVBL
KINGSTREE      NOT AVBL
ORANGEBURG     MOCLDY    53  48  83 N6        29.79R
BARNWELL       FAIR      52  52 100 N6        29.80R
AIKEN          PTSUNNY   50  45  81 CALM      29.82S
MANNING        CLOUDY    50  36  57 N3        29.78R
COLUMBIA       CLOUDY    54  47  77 CALM      29.79R
SUMTER         CLOUDY    51  48  88 N5        29.77R
FLORENCE       PTCLDY    51  47  86 CALM      29.78R
MYRTLE BEACH   CLOUDY    52  46  82 NW6       29.78R
N MYRTLE BEACH MOCLDY    50  48  93 NW3       29.75S

$$

GAZ063-065-086>088-099>101-113>116-118-119-134>141-150-271100-
...SOUTHEAST GEORGIA...

CITY           SKY/WX    TMP DP  RH WIND       PRES   REMARKS
SAVANNAH ARPT  CLOUDY    60  56  86 N8        29.76R
HUNTER AAF     CLOUDY    63  59  88 N8        29.74R
FORT STEWART   CLOUDY    63  59  88 N7        29.73R
STATESBORO       N/A     56  52  87 NE6       29.79R
SYLVANIA       PTSUNNY   54  51  91 NE3       29.80R
CLAXTON        CLOUDY    59  57  94 N5        29.78R

...CSRA...CENTRAL AND FAR SOUTHEAST GEORGIA...

CITY           SKY/WX    TMP DP  RH WIND       PRES   REMARKS
THOMSON        CLOUDY    55  54  95 CALM      29.86R
AUGUSTA-BUSH   PTCLDY    52  47  83 N7        29.79S
AUGUSTA-DANIEL MOCLDY    55  47  74 N6        29.80R
SWAINSBORO     NOT AVBL
VIDALIA        CLOUDY    59  55  88 N6        29.78R
EASTMAN        FAIR      58  58 100 NE7       29.82R
HAZLEHURST     CLOUDY    63  59  89 N3        29.76R
ALMA           CLOUDY    64  60  87 VRB5      29.77R
WAYCROSS       CLOUDY    70  65  84 NE5       29.75R
JESUP          CLOUDY    68  63  83 NE5       29.76R
BAXLEY         CLOUDY    64  61  88 NE5       29.76R
BRUNSWICK      CLOUDY    68  63  83 NE7       29.75R
SAINT SIMONS   CLOUDY    68  64  87 NE12      29.72R

$$

SCZ027-028-034-036>038-045-046-048>050-GAZ119-141-271100-
...LAKE AND SUPPLEMENTAL COASTAL OBSERVATIONS...

STATION/POSITION TIME  TEMP    WIND        PRES    WAVE   SWELL
                       AIR SEA DIR/SP/G            HT/PER HT/PER/DIR
                 (UTC) (F)     (DEG/KT/KT) (MB)    (FT/S) (FT/S/D)
UPR LAKE MARION  NOT AVBL
WINYAH BAY       0945   52     360/  5     1006.0S
LAKE MURRAY      0900   53      30/  2/  4 1007.8F
ACE BASIN NERRS  NOT AVBL
FORT PULASKI     1000   62 70  350/  9/ 11 1008.0R
SAPELO ISLAND    1000   67      40/  7     1006.0S

$$

ANZ835-935-AMZ111-154-330-350-352-354-370-450-454-472-271100-
...C-MAN AND BUOY OBSERVATIONS...

STATION/POSITION TIME  TEMP    WIND        PRES    WAVE   SWELL
                       AIR SEA DIR/SP/G            HT/PER HT/PER/DIR
                 (UTC) (F)     (DEG/KT/KT) (MB)    (FT/S) (FT/S/D)
BUOY 41004       0950   62 71   20/ 14/ 17 1005.6R   4/ 6   2/11
BUOY 41008       0950   67 70   40/ 16/ 17 1006.4R   4/ 5
FOLLY BEACH CMAN 1000   54     350/ 12/ 16 1007.3R
CAPERS NEARSHORE 0908   57      20/ 16/ 19 1006.7S
FRIPP NEARSHORE  0900   60      20/ 14/ 16 1006.3R


STATION/POSITION TIME  TEMP    WIND        PRES    WAVE   SWELL
                       AIR SEA DIR/SP/G            HT/PER HT/PER/DIR
                 (UTC) (F)     (DEG/KT/KT) (MB)    (FT/S) (FT/S/D)
5E ST. MARYS GA  0921      70                N/A     1/13
FRYING PAN BUOY  0950   61 71   30/ 12/ 16 1006.3F   4/ 6   2/100/ 6
BUOY 41025       0950   59 75   10/ 17/ 21 1005.1S   6/ 8   3/ 50/ 8
CAPE LOOKOUT NC  1000   53     340/ 13/ 15 1006.1R
BUOY 41002       0950   67 70   20/  8/ 12 1003.7R   6/ 8   7/230/ 8
BUOY 41010       0920   80 79  270/ 17/ 23 1005.0R
ST AUGUSTINE FL  1000   74 68  260/  8/ 10 1006.8R


$$



USA.gov is the U.S. government's official web portal to all federal, state and local government web resources and services.